Location: Gro� Glienicke
(52.4675°N, 13.1079°E)
Time: 21:04:36
(UTC+00:00)

Daily predictions for brighter satellites

Satellite Brightness Start Highest point End
(mag) Time Altitude Azimuth Time Altitude Azimuth Time Altitude Azimuth
Cosmos 2322 4.0 20:08:17 10° S 20:13:47 51° ESE 20:19:19 10° NE
Cosmos 1745 Rocket 4.2 20:07:52 10° SSW 20:14:05 79° WNW 20:20:26 10° N
Cosmos 2084 3.6 20:10:03 10° NW 20:14:33 89° SW 20:19:00 10° SE
Cosmos 1953 Rocket 3.7 20:15:06 10° S 20:19:19 56° E 20:23:35 10° NNE
Cosmos 773 Rocket 4.2 20:14:51 10° S 20:19:59 54° ESE 20:25:10 10° NNE
ATLAS CENTAUR R/B 1.1 20:17:07 10° NW 20:20:51 82° SW 20:24:30 10° SE
Meteor 1-27 4.4 20:16:12 10° N 20:21:55 66° ENE 20:27:40 10° SSE
USA 215 3.9 20:16:20 10° ENE 20:22:06 32° SE 20:27:50 10° SSW
Cosmos 2237 Rocket 3.8 20:18:54 10° SE 20:22:26 17° E 20:25:58 10° ENE
ERS-1 Rocket 3.1 20:17:42 10° SSE 20:22:44 75° ENE 20:27:47 10° NNW
Cosmos 2219 Rocket 2.6 20:17:41 10° S 20:22:53 41° ESE 20:28:08 10° NE
Cosmos 1869 4.4 20:19:27 10° N 20:23:04 32° ENE 20:26:43 10° SE
Gblst 52 Del rocket 4.4 20:17:41 10° W 20:23:12 62° SSW 20:29:19 10° ESE
Cosmos 1818 3.6 20:18:59 10° SW 20:24:25 83° SE 20:29:55 10° NE
Cosmos 1842 Rocket 4.2 20:20:52 10° N 20:25:02 42° ENE 20:29:10 10° SE
Cosmos 2360 Rocket 2.4 20:19:45 10° SSW 20:25:25 84° WNW 20:31:08 10° NNE
Cosmos 2333 4.3 20:20:06 10° SSW 20:25:38 59° ESE 20:31:15 10° NE
CZ-4C R/B 4.3 20:22:55 10° NW 20:28:31 33° N 20:35:06 10° ENE
SPOT 5 3.0 20:23:53 10° SSE 20:28:52 74° ENE 20:33:36 10° NNW
Landsat 7 4.4 20:27:46 10° S 20:32:27 57° W 20:37:10 10° NNW
Cosmos 1825 Rocket 3.9 20:29:57 10° SSW 20:34:23 74° WNW 20:38:53 10° N
Cosmos 2333 Rocket 2.4 20:31:09 10° S 20:36:41 55° ESE 20:42:16 10° NE
GEOS 3 Rocket 3.8 20:32:41 10° NE 20:38:02 57° SE 20:43:20 10° SSW
Cosmos 1315 Rocket 2.9 20:41:26 10° NNW 20:45:33 86° WSW 20:49:41 10° S
SL-16 R/B 4.0 20:40:52 10° WSW 20:46:06 36° NW 20:51:21 10° NNE
Meteor 2-2 Rocket 4.5 20:41:47 10° N 20:47:36 63° ENE 20:53:03 11° SSE
Cosmos 2278 Rocket 2.3 20:47:49 10° NNW 20:53:33 81° ENE 20:58:50 12° SE
ATLAS 5 CENTAUR R/B 1.9 20:49:38 10° SW 20:53:54 75° NW 20:58:48 10° NE
Cosmos 1892 3.9 20:51:28 12° SE 20:54:18 27° E 20:57:34 10° NNE
CARTOSAT-1 4.0 20:50:08 10° S 20:54:24 60° W 20:58:41 10° NNW
Cosmos 1844 Rocket 4.3 20:50:37 10° NW 20:55:15 28° WSW 20:59:52 10° SSW
USA 81 4.1 20:50:11 10° S 20:55:28 90° W 21:00:48 10° N
Cosmos 1943 Rocket 4.1 20:51:58 10° NNW 20:56:31 24° NE 21:01:02 10° E
USA 267 3.3 20:50:20 10° ESE 20:56:56 86° SSW 21:03:32 10° WNW
Cosmos 1709 Rocket 4.4 20:52:49 10° SSW 20:59:05 67° WNW 21:05:29 10° N
Cosmos 1680 Rocket 4.4 20:59:29 12° SSE 21:03:46 31° ESE 21:08:25 10° NE
Cosmos 1408 4.0 21:03:38 13° SE 21:05:49 22° E 21:08:39 10° NE
SL-16 R/B 4.0 21:04:44 10° SE 21:07:35 14° E 21:10:32 10° ENE
Cosmos 2221 2.6 21:07:00 10° NNW 21:11:24 85° W 21:15:14 13° S
Cosmos 2184 Rocket 4.1 21:09:06 10° S 21:15:17 72° E 21:21:36 10° NNE
Lacrosse 5 rocket 2.5 21:11:43 10° WNW 21:15:45 44° N 21:19:33 10° ENE
Resurs 01 Rocket 4.4 21:15:44 10° W 21:16:52 11° W 21:18:00 10° WNW
In-Cosmos 22 Rocket 4.2 21:14:18 12° S 21:19:09 59° E 21:24:24 10° NNE
Terra 2.3 21:14:58 11° S 21:19:28 57° W 21:24:11 10° NNW
Cosmos 923 Rocket 4.2 21:16:25 10° S 21:21:30 53° ESE 21:26:40 10° NNE
TSX-5 4.1 21:23:50 10° NW 21:27:11 51° WSW 21:30:04 17° SSE
NOSS 3-4 (A) 3.9 21:22:32 10° NW 21:29:24 79° SW 21:36:03 14° SE
NOSS 3-4 (C) 3.9 21:22:39 10° NW 21:29:31 80° SW 21:36:11 14° SE
Cosmos 2058 2.9 21:27:37 15° S 21:31:00 67° E 21:35:07 10° NNE
Cosmos 1624 Rocket 4.1 21:31:53 10° NNW 21:37:09 75° ENE 21:41:12 17° SSE
NOSS 3-3 (A) 4.1 21:35:14 10° SW 21:41:15 87° NW 21:48:09 10° NE
NOSS 3-3 (C) 4.1 21:35:20 10° SW 21:41:21 88° NW 21:48:17 10° NE
Cosmos 1825 2.9 21:39:57 20° SSE 21:42:07 38° E 21:45:40 10° NNE
JB-3 4.3 21:40:52 10° N 21:44:44 77° WNW 21:48:03 13° SSW
Cosmos 2369 Rocket 3.7 21:40:02 10° NNW 21:45:00 31° NE 21:49:57 10° ESE
Aureole 2 Rocket 2.4 21:44:30 10° NNW 21:47:16 50° ENE 21:48:50 22° SE
Cosmos 1980 3.7 21:42:02 10° SSW 21:47:38 68° ESE 21:53:15 10° NE
Nadezhda 3 Rocket 4.1 21:43:44 10° NNW 21:50:08 78° W 21:55:18 16° S
Cosmos 1076 Rocket 3.5 21:47:32 15° S 21:51:01 87° W 21:55:20 10° N
COSMOS 2455 3.5 21:46:27 10° NW 21:52:23 53° NE 21:58:17 10° ESE
COSMOS 2428 3.4 21:49:34 10° SW 21:55:09 58° NW 22:00:47 10° NNE
Cosmos 2154 Rocket 4.0 21:49:47 13° S 21:55:20 89° E 22:01:36 10° N
Cosmos 1933 4.2 21:53:23 10° N 21:57:11 39° ENE 21:59:44 18° SE
ATLAS 2AS CENTAUR R/B 3.0 21:49:43 10° NW 21:57:16 64° SW 22:02:39 18° SSE
Thor Agena Rocket 3.6 21:52:39 10° NNE 21:57:46 63° ESE 22:01:29 18° S
Cosmos 2151 3.3 21:55:43 21° SSE 21:58:22 52° E 22:02:33 10° NNE
ATLAS CENTAUR R/B 3.5 21:57:57 10° W 21:59:03 11° WSW 22:00:09 10° SW
Cosmos 2341 Rocket 4.2 21:55:15 18° SSE 21:59:55 59° E 22:06:01 10° NNE
Helios 1A 4.4 21:57:31 12° ESE 22:00:39 28° ENE 22:04:14 10° N
BREEZE-M DEB (TANK) 2.1 21:58:35 10° W 22:02:31 38° SSW 22:03:23 28° SSE
Genesis I 3.3 22:00:58 16° SSW 22:03:55 55° SE 22:07:46 10° NE
SL-4 R/B 2.8 22:04:30 14° E 22:05:05 15° ENE 22:06:26 10° NNE
Cosmos 1371 Rocket 4.2 22:00:01 10° NNW 22:05:13 63° WSW 22:08:51 20° S
Cosmos 2237 Rocket 2.2 21:59:57 10° SSW 22:05:40 84° ESE 22:11:24 10° NNE
USA 215 3.2 21:59:10 10° ENE 22:05:45 80° SSE 22:12:20 10° WSW
Cosmos 2219 Rocket 3.3 22:01:29 10° WSW 22:06:50 45° NW 22:12:15 10° NNE
Spot 4 3.9 22:06:50 20° S 22:10:07 70° WSW 22:14:55 10° NNW
Cosmos 2344 3.6 22:05:39 10° SSW 22:12:55 59° SE 22:20:56 10° NE
Cosmos 1151 Rocket 3.3 22:08:46 10° N 22:13:05 61° ENE 22:15:44 22° SSE
Cosmos 158 Rocket 3.8 22:09:32 13° SSW 22:13:58 86° WNW 22:18:56 10° NNE
Cosmos 1782 4.3 22:11:26 10° N 22:14:53 28° ENE 22:17:28 15° ESE
SL-8 Rocket 4.2 22:11:02 19° SSE 22:15:23 58° E 22:21:25 10° NNE
Cosmos 2112 Rocket 4.1 22:12:33 12° SSW 22:17:29 87° WNW 22:22:54 10° NNE
CZ-4C R/B 3.4 22:11:47 10° NW 22:18:24 57° NNE 22:26:12 10° ESE
Cosmos 332 Rocket 4.1 22:14:30 10° NNW 22:19:17 61° ENE 22:22:47 18° SE
Cosmos 1420 Rocket 4.0 22:14:57 10° NNW 22:20:16 89° ENE 22:23:56 21° SSE
ATLAS 5 CENTAUR R/B 4.2 22:19:46 10° NNW 22:21:06 15° NNE 22:22:46 10° NE
Cosmos 2333 Rocket 3.7 22:15:56 10° WSW 22:21:13 37° NW 22:26:33 10° NNE
ALOS 2 2.6 22:18:57 23° SSE 22:21:42 84° ENE 22:26:07 10° NNW
Cosmos 1346 Rocket 4.3 22:20:27 18° SE 22:22:12 24° E 22:25:24 10° NE
Cosmos 1727 Rocket 4.4 22:18:38 10° N 22:24:47 56° ENE 22:29:28 18° SSE
EO 1 Del DPAF 3.3 22:23:42 10° NNE 22:27:29 74° WNW 22:29:55 21° SSW
Cosmos 2056 Rocket 4.1 22:23:47 10° NW 22:28:59 48° WSW 22:32:26 20° S
Cosmos 1892 4.3 22:26:36 10° SW 22:29:56 29° WNW 22:33:20 10° N
GP-B 3.1 22:25:58 10° N 22:30:26 77° E 22:33:05 24° S
NOSS 0 Rocket 4.4 22:24:54 10° SW 22:31:00 63° NW 22:37:11 10° NNE
Nimbus 7 Rocket 4.4 22:27:48 10° NNE 22:33:47 72° ESE 22:37:58 20° S
Cosmos 1633 3.9 22:32:54 20° SE 22:34:25 27° E 22:37:31 10° NNE
Cosmos 1606 2.9 22:31:29 10° NNW 22:35:22 67° W 22:37:25 26° S
Cosmos 2278 Rocket 3.9 22:32:50 10° NW 22:37:00 21° W 22:40:40 12° SW
RESURS DK-1 3.7 22:33:16 10° NNW 22:37:09 37° NE 22:41:00 10° ESE
ATLAS 5 CENTAUR R/B 4.0 22:35:20 10° WNW 22:39:18 28° NNW 22:43:49 10° NE
Cosmos 2297 4.0 22:34:36 10° NW 22:40:15 58° WSW 22:43:52 22° S
USA 267 3.9 22:36:39 20° S 22:40:29 36° SW 22:46:28 10° WNW
Cosmos 1408 4.0 22:37:57 13° SW 22:40:41 32° WNW 22:43:57 10° N
Cosmos 1943 Rocket 2.3 22:35:26 10° NNW 22:41:10 81° ENE 22:45:29 18° SE
Cosmos 44 3.1 22:40:51 22° SSW 22:43:32 60° SE 22:47:56 10° NE
Gbstr 26 Del rocket 3.8 22:44:19 25° SSE 22:44:30 25° SE 22:47:54 10° E
Cosmos 1680 Rocket 4.3 22:40:31 10° SW 22:45:41 50° WNW 22:50:54 10° NNE
Cosmos 371 Rocket 3.5 22:43:44 10° NNW 22:48:33 62° WSW 22:51:21 24° S
SL-16 R/B 2.2 22:46:34 19° SSW 22:50:43 74° ESE 22:56:26 10° NNE
APEX 2.6 22:50:35 10° NW 22:53:16 53° WSW 22:53:52 41° SSW
IRIDIUM 104 4.3 22:49:58 22° S 22:53:23 82° W 22:58:39 10° N
Cosmos 405 3.2 22:50:56 10° N 22:54:28 64° ENE 22:56:11 28° SSE
CREW DRAGON DEMO-1 DEB 2.9 22:53:16 21° SW 22:55:01 51° SSE 22:58:01 10° E
Lacrosse 5 rocket 1.2 22:51:10 10° WNW 22:55:15 84° NNE 22:59:05 10° ESE
Cosmos 1452 Rocket 3.5 22:50:47 10° NNW 22:56:03 72° WSW 22:59:20 23° S
Cosmos 1515 Rocket 3.5 22:53:19 10° NNW 22:57:42 85° WSW 23:00:08 26° S
Cosmos 1110 Rocket 4.5 22:53:30 10° NNW 22:58:44 59° ENE 23:03:08 15° SE
IRIDIUM 114 4.5 22:59:06 21° SSW 23:02:34 70° W 23:07:48 10° N
Cosmos 1328 Rocket 4.1 22:59:37 10° NNW 23:03:46 47° W 23:06:06 23° SSW
Cosmos 1766 Rocket 4.0 23:01:32 20° SSW 23:04:25 55° WNW 23:08:48 10° N
Okean 3 Rocket 4.5 23:07:35 17° SW 23:10:44 43° WNW 23:15:00 10° N
Meteor 2-3 Rocket 3.8 23:12:54 21° SSW 23:16:48 81° WNW 23:22:34 10° NNE
Cosmos 1340 3.0 23:15:33 24° SW 23:17:36 58° WNW 23:21:21 10° N
Cosmos 1825 4.2 23:14:47 10° WSW 23:17:47 22° WNW 23:20:48 10° NNW
Cosmos 2228 Rocket 3.1 23:14:06 10° N 23:18:43 88° ENE 23:21:26 24° S
Resurs 1-4 Rocket 4.3 23:16:42 10° NE 23:19:29 14° E 23:22:14 10° ESE
Cosmos 2218 Rocket 4.3 23:17:43 18° SSW 23:22:33 63° WNW 23:28:48 10° N
Meteor 2-6 Rocket 4.2 23:19:22 10° NNW 23:24:54 81° ENE 23:28:39 21° SSE
Cosmos 1603 4.3 23:22:36 22° S 23:25:54 44° ESE 23:31:18 10° NE
Meteor 1-10 Rocket 4.3 23:20:40 10° N 23:26:16 72° ENE 23:30:20 19° SSE
Cosmos 2366 rocket 4.4 23:21:57 18° SSW 23:26:46 61° WNW 23:33:05 10° N
Cosmos 2369 Rocket 2.2 23:23:55 10° NW 23:29:29 68° WSW 23:33:18 21° SSE
CZ-4 R/B 4.1 23:25:01 10° NNE 23:29:39 57° ESE 23:32:25 24° S
Cosmos 1743 Rocket 3.5 23:29:40 26° SSW 23:32:05 85° W 23:36:29 10° N
Cosmos 304 Rocket 4.1 23:27:42 10° NNW 23:32:23 51° WSW 23:35:01 24° S
Sich 1 4.0 23:29:53 19° SSE 23:32:23 36° E 23:36:24 10° NNE
SL-4 R/B 2.9 23:33:31 14° W 23:33:31 14° W 23:34:28 10° WNW
Cosmos 44 Rocket 4.3 23:32:06 22° SSE 23:34:09 31° ESE 23:38:19 10° ENE
Cosmos 1821 Rocket 4.0 23:30:58 21° S 23:35:08 75° E 23:41:14 10° NNE
Cosmos 2123 Rocket 4.3 23:29:35 10° N 23:35:47 65° ENE 23:40:48 16° SSE
Helios 1A 3.8 23:34:08 23° SSW 23:36:07 37° W 23:40:00 10° NNW
COSMOS 2455 3.4 23:32:37 10° NW 23:38:17 43° WSW 23:41:47 22° S
Cosmos 1656 Rocket 3.6 23:34:14 10° NNW 23:39:41 83° ENE 23:44:30 13° SSE
ATLAS 2AS CENTAUR R/B 4.4 23:42:26 10° WNW 23:46:44 17° WSW 23:50:03 12° SW
USA 215 3.7 23:42:14 10° ENE 23:48:44 65° N 23:55:12 10° W
Cosmos 1812 2.7 23:45:20 10° N 23:49:14 85° E 23:51:26 25° SSE
Cosmos 2237 Rocket 4.1 23:45:35 10° W 23:50:25 27° NW 23:55:15 10° NNE
CRYOSAT 2 4.3 23:45:48 10° N 23:50:42 83° W 23:53:46 23° S
Cosmos 1782 3.9 23:47:40 10° NNW 23:51:13 32° W 23:53:04 21° SW
CZ-2D R/B 3.8 23:48:42 10° NE 23:53:00 25° E 23:57:19 10° SE
